Погода в Боровском

Россия / Новгородская область     58°48′52″N   34°21′31″E
темп.,
°C
ветер,
м/с
пор.,
м/с
влажн.,
%
обл.,
%
осадки,
мм/ч
давл.,
гПа
погр.,
м
16 мая, вс
вс1600:00+11ююз249766 0.6 100482
03:00+10ююз279818 0.6 1004161
06:00+11ююз279726 0.1 1005225
09:00+15юз478475 0.1 1006683
12:00+16юз577697 0.1 1008933
15:00+17зюз4668100 0.1 10091153
18:00+16зюз2582100 0.3 1010272
21:00+13зюз23940 0.5 101159
17 мая, пн
пн1700:00+11з22960 0.0 101329
03:00+10ююз11953 0.0 101410
06:00+12юв12935 0.0 101576
09:00+18юв246816 0.0 1015538
12:00+21юв4651100 0.0 10141534
15:00+23юв4647100 0.0 10132090
18:00+22вюв4755100 0.0 10121639
21:00+17вюв4127684 0.0 1011475
18 мая, вт
вт1800:00+15вюв41493100 0.6 1011463
03:00+14вюв31196100 0.9 1010322
06:00+15вюв311955 0.0 1009333
09:00+21вюв5116597 0.0 1007655
12:00+25юв6134489 0.0 10061377
15:00+27юв61540100 0.0 10052449
18:00+25юв61344100 0.0 10051678
21:00+21юв51355100 0.0 1006953
19 мая, ср
ср1900:00+18ююв41472100 0.0 1007696
03:00+14юв289180 0.0 1006176
06:00+16юв398694 0.0 1006273
09:00+22юв47645 0.0 1005625
12:00+26юв59405 0.0 10051283
15:00+28ююв6173232 0.0 10043334
18:00+26юв511417 0.0 10032537
21:00+20юв61570100 0.7 10031137
20 мая, чт
чт2000:00+16юв514850 1.0 1003805
03:00+14юв31096100 1.0 1003428
06:00+14юв399588 0.0 1003493
09:00+16юв378798 0.0 1003659
12:00+14ююв2696100 2.4 1002421
15:00+19ююв4654100 2.6 10001267
18:00+17ю4775100 1.5 1000729
21:00+13ююз398989 3.3 1000278